�������l�o���
Date,Time,MP-1(��Sv/h),MP-2(��Sv/h),MP-3(��Sv/h),MP-4(��Sv/h),MP-5(��Sv/h),MP-6(��Sv/h),MP-7(��Sv/h),MP-8(��Sv/h),����,����(m/s),���J
2024/04/26,00:00,0.501,0.758,0.482,0.942,0.677,0.314,0.547,0.516,���k��,3.9,��
2024/04/26,00:10,0.501,0.758,0.481,0.940,0.678,0.313,0.547,0.514,���k��,4.7,��
2024/04/26,00:20,0.500,0.758,0.479,0.940,0.679,0.313,0.549,0.514,���k��,5.3,��
2024/04/26,00:30,0.501,0.758,0.480,0.942,0.680,0.311,0.548,0.514,���k��,5.2,��
2024/04/26,00:40,0.502,0.757,0.481,0.942,0.677,0.311,0.548,0.514,���k��,4.8,��
2024/04/26,00:50,0.503,0.758,0.481,0.942,0.679,0.312,0.547,0.515,���k��,6.0,��
2024/04/26,01:00,0.501,0.758,0.480,0.941,0.679,0.312,0.547,0.513,���k��,5.7,��
2024/04/26,01:10,0.501,0.758,0.480,0.941,0.680,0.312,0.548,0.515,���k��,4.0,��
2024/04/26,01:20,0.502,0.758,0.480,0.940,0.677,0.312,0.547,0.516,���k��,4.3,��
2024/04/26,01:30,0.501,0.757,0.480,0.942,0.677,0.312,0.547,0.513,���k��,3.6,��
2024/04/26,01:40,0.502,0.758,0.480,0.942,0.679,0.312,0.546,0.515,���k��,2.6,��
2024/04/26,01:50,0.502,0.757,0.480,0.942,0.679,0.313,0.548,0.514,��,2.5,��
2024/04/26,02:00,0.501,0.757,0.480,0.942,0.677,0.311,0.548,0.515,���k��,2.6,��
2024/04/26,02:10,0.502,0.758,0.481,0.941,0.678,0.311,0.547,0.515,���k��,2.8,��
2024/04/26,02:20,0.502,0.758,0.479,0.939,0.679,0.311,0.548,0.515,���k��,3.8,��
2024/04/26,02:30,0.500,0.758,0.480,0.942,0.678,0.311,0.548,0.514,���k��,5.3,��
2024/04/26,02:40,0.501,0.757,0.481,0.940,0.679,0.313,0.547,0.514,���k��,4.5,��
2024/04/26,02:50,0.500,0.757,0.480,0.942,0.677,0.311,0.547,0.514,���k��,4.8,��
2024/04/26,03:00,0.501,0.758,0.480,0.941,0.677,0.311,0.547,0.514,���k��,5.5,��
2024/04/26,03:10,0.500,0.759,0.479,0.940,0.676,0.312,0.548,0.515,��,3.7,��
2024/04/26,03:20,0.501,0.757,0.479,0.943,0.678,0.312,0.548,0.515,��,1.7,��
2024/04/26,03:30,0.501,0.759,0.481,0.941,0.675,0.313,0.548,0.514,�쐼,1.2,��
2024/04/26,03:40,0.501,0.759,0.480,0.942,0.678,0.311,0.547,0.516,�쐼,1.5,��
2024/04/26,03:50,0.501,0.757,0.480,0.941,0.679,0.311,0.547,0.514,�쐼,2.3,��
2024/04/26,04:00,0.501,0.759,0.480,0.941,0.678,0.310,0.548,0.515,��쐼,3.5,��
2024/04/26,04:10,0.500,0.758,0.478,0.944,0.678,0.309,0.549,0.514,���쐼,4.2,��
2024/04/26,04:20,0.501,0.755,0.479,0.942,0.678,0.312,0.548,0.515,�쐼,4.3,��
2024/04/26,04:30,0.501,0.758,0.480,0.940,0.678,0.312,0.549,0.515,�쐼,4.3,��
2024/04/26,04:40,0.501,0.759,0.478,0.939,0.679,0.311,0.549,0.515,��쐼,3.3,��
2024/04/26,04:50,0.500,0.757,0.481,0.941,0.679,0.312,0.547,0.515,�쐼,3.5,��
2024/04/26,05:00,0.501,0.758,0.480,0.940,0.677,0.312,0.549,0.515,�쐼,3.7,��
2024/04/26,05:10,0.500,0.756,0.479,0.943,0.679,0.312,0.549,0.515,��쐼,4.1,��
2024/04/26,05:20,0.500,0.758,0.479,0.940,0.677,0.311,0.549,0.515,��쐼,3.7,��
2024/04/26,05:30,0.500,0.759,0.478,0.940,0.677,0.311,0.549,0.513,�쐼,3.2,��
2024/04/26,05:40,0.500,0.758,0.479,0.940,0.679,0.313,0.548,0.515,�쐼,2.0,��
2024/04/26,05:50,0.502,0.758,0.480,0.941,0.679,0.311,0.549,0.514,�쐼,3.2,��
2024/04/26,06:00,0.501,0.758,0.481,0.941,0.678,0.312,0.549,0.515,�쐼,4.2,��
2024/04/26,06:10,0.501,0.759,0.480,0.943,0.677,0.312,0.549,0.515,�쐼,3.6,��
2024/04/26,06:20,0.501,0.760,0.481,0.941,0.677,0.311,0.550,0.514,�쐼,4.4,��
2024/04/26,06:30,0.500,0.758,0.480,0.942,0.678,0.312,0.550,0.515,�쐼,5.4,��
2024/04/26,06:40,0.502,0.759,0.480,0.943,0.680,0.312,0.550,0.515,�쐼,4.3,��
2024/04/26,06:50,0.502,0.761,0.482,0.941,0.678,0.312,0.550,0.516,�쐼,3.8,��
2024/04/26,07:00,0.502,0.758,0.481,0.941,0.680,0.314,0.552,0.515,�쐼,3.4,��
2024/04/26,07:10,0.502,0.758,0.480,0.943,0.679,0.311,0.551,0.514,�쐼,2.9,��
2024/04/26,07:20,0.501,0.758,0.481,0.941,0.679,0.311,0.550,0.515,���k��,1.7,��
2024/04/26,07:30,0.500,0.757,0.479,0.943,0.677,0.311,0.554,0.516,�k��,2.6,��
2024/04/26,07:40,0.501,0.757,0.480,0.942,0.679,0.310,0.555,0.515,�k�k��,0.8,��
2024/04/26,07:50,0.504,0.756,0.481,0.943,0.678,0.310,0.552,0.515,�k��,0.9,��
2024/04/26,08:00,0.501,0.757,0.480,0.945,0.679,0.310,0.553,0.516,���쓌,1.5,��
2024/04/26,08:10,0.500,0.759,0.480,0.945,0.679,0.311,0.551,0.516,��쓌,0.8,��
2024/04/26,08:20,0.500,0.757,0.481,0.943,0.677,0.311,0.550,0.515,�쓌,0.9,��
2024/04/26,08:30,0.502,0.757,0.482,0.945,0.678,0.313,0.550,0.515,�쓌,3.3,��
2024/04/26,08:40,0.501,0.758,0.481,0.943,0.677,0.311,0.547,0.512,�쓌,4.3,��
2024/04/26,08:50,0.500,0.759,0.480,0.945,0.678,0.311,0.549,0.514,�쓌,3.2,��
2024/04/26,09:00,0.502,0.760,0.481,0.942,0.678,0.310,0.548,0.513,�쓌,3.0,��
2024/04/26,09:10,0.500,0.759,0.478,0.942,0.677,0.312,0.549,0.513,�쓌,3.3,��
2024/04/26,09:20,0.502,0.758,0.481,0.943,0.678,0.311,0.549,0.514,�쓌,3.9,��
2024/04/26,09:30,0.502,0.759,0.479,0.945,0.678,0.312,0.550,0.513,�쓌,3.4,��
2024/04/26,09:40,0.501,0.759,0.481,0.948,0.676,0.311,0.549,0.514,�쓌,4.0,��
2024/04/26,09:50,0.503,0.760,0.480,0.945,0.675,0.311,0.549,0.514,�쓌,3.6,��
2024/04/26,10:00,0.501,0.759,0.480,0.943,0.678,0.312,0.549,0.514,��쓌,4.0,��
2024/04/26,10:10,0.503,0.760,0.480,0.947,0.680,0.311,0.551,0.514,��쓌,4.5,��
2024/04/26,10:20,0.502,0.760,0.481,0.945,0.682,0.311,0.549,0.515,��쓌,6.9,��
2024/04/26,10:30,0.503,0.758,0.481,0.946,0.680,0.312,0.548,0.515,��,9.5,��
2024/04/26,10:40,0.502,0.762,0.482,0.942,0.680,0.312,0.550,0.515,��,7.2,��
2024/04/26,10:50,0.502,0.760,0.479,0.945,0.681,0.311,0.550,0.514,��,9.8,��
2024/04/26,11:00,0.503,0.762,0.482,0.945,0.680,0.311,0.549,0.515,��쓌,9.2,��
2024/04/26,11:10,0.503,0.763,0.482,0.945,0.682,0.312,0.549,0.515,��쓌,9.6,��
2024/04/26,11:20,0.502,0.763,0.481,0.944,0.682,0.312,0.549,0.514,��,9.3,��
2024/04/26,11:30,0.503,0.761,0.481,0.945,0.681,0.312,0.550,0.515,��쓌,12.7,��
2024/04/26,11:40,0.502,0.763,0.480,0.944,0.682,0.313,0.548,0.514,��,10.8,��
2024/04/26,11:50,0.503,0.763,0.481,0.942,0.683,0.312,0.549,0.516,��,11.3,��
2024/04/26,12:00,0.505,0.764,0.481,0.942,0.680,0.313,0.551,0.515,��쓌,10.8,��
2024/04/26,12:10,0.504,0.765,0.483,0.943,0.683,0.312,0.549,0.515,��쓌,12.0,��
2024/04/26,12:20,0.503,0.763,0.483,0.943,0.682,0.312,0.550,0.516,��쓌,13.3,��
2024/04/26,12:30,0.503,0.764,0.482,0.943,0.682,0.314,0.548,0.516,��,10.3,��
2024/04/26,12:40,0.505,0.763,0.484,0.944,0.685,0.312,0.551,0.514,��,11.3,��
2024/04/26,12:50,0.503,0.763,0.483,0.944,0.683,0.311,0.551,0.514,��쓌,13.5,��
2024/04/26,13:00,0.505,0.764,0.483,0.945,0.686,0.313,0.548,0.516,��쓌,12.2,��
2024/04/26,13:10,0.503,0.763,0.482,0.946,0.684,0.313,0.549,0.515,��쓌,12.4,��
2024/04/26,13:20,0.503,0.765,0.480,0.945,0.684,0.314,0.550,0.516,��쓌,14.2,��
2024/04/26,13:30,0.502,0.764,0.482,0.946,0.685,0.314,0.549,0.515,��쓌,13.1,��
2024/04/26,13:40,0.505,0.764,0.484,0.947,0.682,0.313,0.548,0.513,��쓌,14.1,��
2024/04/26,13:50,0.504,0.762,0.483,0.947,0.684,0.313,0.549,0.515,��쓌,14.6,��
2024/04/26,14:00,0.505,0.765,0.484,0.947,0.684,0.312,0.549,0.516,��,13.0,��
2024/04/26,14:10,0.505,0.764,0.482,0.946,0.685,0.313,0.549,0.515,��쓌,12.2,��
2024/04/26,14:20,0.503,0.764,0.481,0.947,0.684,0.313,0.549,0.514,��쓌,10.2,��
2024/04/26,14:30,0.504,0.764,0.484,0.947,0.684,0.313,0.550,0.516,��,12.4,��
2024/04/26,14:40,0.505,0.764,0.483,0.946,0.685,0.314,0.549,0.514,��,13.9,��
2024/04/26,14:50,0.505,0.766,0.483,0.947,0.687,0.314,0.548,0.515,��,12.8,��
2024/04/26,15:00,0.503,0.765,0.484,0.946,0.685,0.313,0.549,0.515,��,13.0,��
2024/04/26,15:10,0.505,0.764,0.484,0.945,0.684,0.314,0.550,0.515,��,11.1,��
2024/04/26,15:20,0.505,0.765,0.485,0.947,0.684,0.314,0.548,0.516,��,12.0,��
2024/04/26,15:30,0.505,0.765,0.484,0.943,0.686,0.313,0.548,0.515,��,13.9,��
2024/04/26,15:40,0.503,0.765,0.483,0.947,0.685,0.313,0.548,0.515,��,11.6,��
2024/04/26,15:50,0.506,0.766,0.483,0.946,0.685,0.313,0.549,0.516,��,11.0,��
2024/04/26,16:00,0.505,0.766,0.485,0.945,0.685,0.314,0.548,0.515,��,11.3,��
2024/04/26,16:10,0.505,0.766,0.483,0.945,0.685,0.313,0.549,0.515,��,12.5,��
2024/04/26,16:20,0.503,0.764,0.485,0.947,0.685,0.313,0.549,0.515,��,13.6,��
2024/04/26,16:30,0.504,0.764,0.483,0.944,0.685,0.312,0.548,0.515,��,11.6,��
2024/04/26,16:40,0.504,0.763,0.482,0.945,0.685,0.313,0.548,0.514,��쓌,12.0,��
2024/04/26,16:50,0.504,0.766,0.482,0.945,0.685,0.314,0.547,0.513,��,10.5,��
2024/04/26,17:00,0.505,0.764,0.482,0.944,0.686,0.314,0.547,0.513,��,12.2,��
2024/04/26,17:10,0.504,0.766,0.482,0.944,0.686,0.312,0.547,0.513,��,11.7,��
2024/04/26,17:20,0.505,0.764,0.481,0.946,0.687,0.313,0.548,0.515,��,12.0,��
2024/04/26,17:30,0.503,0.766,0.482,0.950,0.684,0.313,0.549,0.514,��,11.3,��
2024/04/26,17:40,0.503,0.766,0.482,0.948,0.685,0.312,0.548,0.515,��,10.0,��
2024/04/26,17:50,0.504,0.766,0.482,0.948,0.685,0.313,0.547,0.514,��,10.3,��
2024/04/26,18:00,0.505,0.766,0.482,0.949,0.685,0.314,0.549,0.516,��,10.0,��
2024/04/26,18:10,0.504,0.767,0.482,0.951,0.685,0.312,0.547,0.516,��,8.4,��
2024/04/26,18:20,0.503,0.768,0.482,0.949,0.686,0.314,0.548,0.516,��,8.3,��
2024/04/26,18:30,0.504,0.770,0.483,0.949,0.685,0.312,0.549,0.517,��,7.2,��
2024/04/26,18:40,0.505,0.768,0.482,0.950,0.686,0.314,0.550,0.518,��,6.1,��
2024/04/26,18:50,0.505,0.769,0.484,0.950,0.687,0.315,0.549,0.517,��,7.3,��
2024/04/26,19:00,0.504,0.767,0.485,0.951,0.686,0.314,0.550,0.516,��,8.0,��
2024/04/26,19:10,0.504,0.770,0.485,0.950,0.687,0.313,0.549,0.516,��,6.6,��
2024/04/26,19:20,0.505,0.768,0.485,0.952,0.687,0.313,0.550,0.516,��,6.6,��
2024/04/26,19:30,0.505,0.769,0.485,0.951,0.688,0.313,0.550,0.517,��,7.0,��
2024/04/26,19:40,0.504,0.768,0.485,0.949,0.687,0.312,0.550,0.517,��,7.6,��
2024/04/26,19:50,0.505,0.768,0.485,0.949,0.688,0.314,0.551,0.516,��,8.5,��
2024/04/26,20:00,0.507,0.765,0.485,0.952,0.687,0.313,0.550,0.516,��,7.4,��
2024/04/26,20:10,0.506,0.768,0.486,0.952,0.688,0.313,0.551,0.515,��,7.8,��
2024/04/26,20:20,0.504,0.768,0.485,0.951,0.689,0.313,0.550,0.518,��,8.3,��
2024/04/26,20:30,0.505,0.767,0.486,0.948,0.689,0.313,0.550,0.517,��,8.8,��
2024/04/26,20:40,0.505,0.767,0.484,0.950,0.687,0.314,0.551,0.516,��,9.1,��
2024/04/26,20:50,0.506,0.768,0.485,0.952,0.688,0.312,0.549,0.516,��,8.8,��
2024/04/26,21:00,0.504,0.768,0.485,0.950,0.688,0.312,0.551,0.517,��,8.2,��
2024/04/26,21:10,0.505,0.769,0.485,0.951,0.687,0.312,0.551,0.517,��,8.1,��
2024/04/26,21:20,0.506,0.767,0.486,0.952,0.689,0.313,0.549,0.516,��,7.3,��
2024/04/26,21:30,0.505,0.768,0.484,0.950,0.688,0.312,0.550,0.518,��,7.3,��
2024/04/26,21:40,0.504,0.767,0.485,0.950,0.687,0.314,0.551,0.514,��,7.4,��
2024/04/26,21:50,0.504,0.768,0.486,0.952,0.690,0.313,0.550,0.518,��,7.1,��
2024/04/26,22:00,0.507,0.768,0.483,0.950,0.688,0.312,0.551,0.517,��,7.0,��
2024/04/26,22:10,0.505,0.768,0.486,0.951,0.690,0.313,0.551,0.518,��,6.2,��
2024/04/26,22:20,0.507,0.768,0.485,0.950,0.688,0.312,0.551,0.516,��,6.2,��
2024/04/26,22:30,0.506,0.768,0.486,0.952,0.688,0.313,0.551,0.516,��,5.8,��
2024/04/26,22:40,0.504,0.767,0.485,0.949,0.687,0.312,0.550,0.518,��,5.4,��
2024/04/26,22:50,0.506,0.770,0.485,0.950,0.687,0.315,0.551,0.517,��,5.8,��
2024/04/26,23:00,0.506,0.769,0.484,0.949,0.687,0.314,0.548,0.517,��,6.0,��
2024/04/26,23:10,0.505,0.769,0.485,0.950,0.688,0.313,0.549,0.515,��,6.6,��
2024/04/26,23:20,0.506,0.768,0.484,0.948,0.687,0.314,0.550,0.517,��,6.9,��
2024/04/26,23:30,0.505,0.768,0.486,0.949,0.686,0.314,0.550,0.517,��,6.8,��
2024/04/26,23:40,0.506,0.769,0.485,0.950,0.686,0.315,0.552,0.516,��,6.6,��
2024/04/26,23:50,0.507,0.770,0.485,0.950,0.688,0.315,0.551,0.516,��,6.1,��
